Location: Seattle
(47.6064°N, 122.3308°W)
Time: 00:57:47
(UTC-07:00)

RS-15 - Pass Details

Date: 05 April 2023
Orbit: 1885 x 2159 km, 64.8° (Epoch: 29 May)

Event Time Altitude Azimuth Distance (km) Brightness Sun altitude
Rises 21:16:46 0° 302° (WNW) 5,680 12.4 -15.4°
Reaches altitude 10° 21:20:47 10° 311° (NW) 4,660 11.3 -16.0°
Maximum altitude 21:31:55 38° 17° (NNE) 2,896 9.0 -17.6°
Enters shadow 21:42:22 11° 83° (E) 4,421 9.5 -19.1°
